This demonstration page uses our WeatherBlox Daily Observations layout. Learn more.

Left ArrowRight Arrow

Hourly Observations for June 4, 2015

Temp ( °F °C ) Dew Point ( °F °C ) Humidity (%) Winds ( mph kmh ) Pressure ( in mb ) Visibility ( mi km ) Precip ( " mm )
12:54 am 00:54 Mostly Clear 71 21.7 66 18.9 84 84 SE 3 6 29.89 1012 10 16.0934 N/A
1:41 am 01:41 Mostly Cloudy with Nearby Thunderstorms 72 22 66 19 83 83 WSW 21 33 29.94 1014 10 16.0934 N/A
1:50 am 01:50 Windy with Storms Likely 70 21 64 18 83 83 W 32 52 29.94 1014 8 12.87472 N/A
1:54 am 01:54 Mostly Cloudy with Thunderstorms 67 19.4 64 17.8 91 91 W 20 31 29.95 1014 4 6.43736 N/A
2:10 am 02:10 Mostly Cloudy with Light Thunderstorms 64 18 63 17 94 94 VRB 3 6 29.91 1013 5 8.0467 N/A
2:26 am 02:26 Mostly Cloudy with Light Rain 65 18.3 63 17.2 93 93 ESE 10 17 29.88 1012 10 16.0934 0.21 5.334
2:54 am 02:54 Partly Cloudy 66 18.9 63 17.2 90 90 E 8 13 29.91 1013 10 16.0934 0.21 5.334
3:54 am 03:54 Partly Cloudy 66 18.9 64 17.8 93 93 N N/A 29.9 1012 10 16.0934 N/A
4:54 am 04:54 Mostly Cloudy 67 19.4 64 17.8 91 91 NE 5 7 29.89 1012 10 16.0934 N/A
5:14 am 05:14 Mostly Cloudy with Light Rain 66 19 64 18 94 94 ESE 6 9 29.91 1013 10 16.0934 N/A
5:33 am 05:33 Cloudy with Light Thunderstorms 67 19.4 64 17.8 91 91 E 6 9 29.91 1013 10 16.0934 0.02 0.508
5:54 am 05:54 Cloudy with Light Thunderstorms 67 19.4 65 18.3 93 93 N 12 19 29.93 1014 9 14.48406 0.03 0.762
6:54 am 06:54 Mostly Cloudy with Light Thunderstorms 67 19.4 65 18.3 93 93 SE 16 26 29.88 1012 10 16.0934 0.09 2.286
7:01 am 07:01 Windy with Storms Likely 67 19.4 65 18.3 93 93 ESE 20 31 29.83 1010 10 16.0934 N/A
7:43 am 07:43 Partly Cloudy 67 19.4 64 17.8 91 91 NNE 17 28 29.85 1011 10 16.0934 N/A
7:54 am 07:54 Mostly Sunny 67 19.4 65 18.3 93 93 VRB 5 7 29.87 1011 10 16.0934 N/A
8:13 am 08:13 Mostly Cloudy 66 19 64 18 94 94 WSW 12 19 29.91 1013 10 16.0934 N/A
8:40 am 08:40 Mostly Cloudy 68 20 66 18.9 93 93 W 22 35 30 1016 9 14.48406 N/A
8:50 am 08:50 Mostly Cloudy 68 20 63 17 83 83 WSW 18 30 30 1016 10 16.0934 N/A
8:54 am 08:54 Mostly Cloudy 68 20 62 16.7 81 81 WSW 17 28 29.98 1015 10 16.0934 N/A
9:54 am 09:54 Cloudy with Light Rain 66 18.9 62 16.7 87 87 S 21 33 29.92 1013 6 9.65604 0.02 0.508
10:02 am 10:02 Mostly Cloudy with Light Rain 65 18.3 62 16.7 90 90 S 13 20 29.94 1014 10 16.0934 N/A
10:54 am 10:54 Mostly Sunny 66 18.9 62 16.7 87 87 NE 7 11 29.91 1013 10 16.0934 0.01 0.254
11:54 am 11:54 Sunny 67 19.4 63 17.2 87 87 N 3 6 29.93 1014 10 16.0934 N/A
12:26 pm 12:26 Partly Cloudy with Nearby Thunderstorms 66 19 63 17 88 88 WSW 5 7 29.94 1014 10 16.0934 N/A
12:41 pm 12:41 Mostly Sunny 68 20 64 17.8 87 87 N N/A 29.94 1014 10 16.0934 N/A
12:54 pm 12:54 Sunny 69 20.6 63 17.2 81 81 N N/A 29.93 1014 10 16.0934 N/A
1:54 pm 13:54 Sunny 71 21.7 64 17.8 79 79 N 3 6 29.96 1014 10 16.0934 N/A
2:54 pm 14:54 Partly Cloudy 74 23.3 64 17.8 71 71 N 7 11 29.98 1015 10 16.0934 N/A
3:06 pm 15:06 Mostly Cloudy 71 21.7 64 17.8 79 79 N 9 15 29.97 1015 10 16.0934 N/A
3:42 pm 15:42 Partly Cloudy 72 22 64 18 78 78 NNE 5 7 29.97 1015 10 16.0934 N/A
3:54 pm 15:54 Mostly Cloudy 70 21.1 65 18.3 84 84 NNE 3 6 29.97 1015 10 16.0934 N/A
4:19 pm 16:19 Partly Cloudy with Light Thunderstorms 70 21 64 18 83 83 N N/A 29.97 1015 6 9.65604 N/A
4:28 pm 16:28 Mostly Cloudy with Nearby Thunderstorms 70 21 66 19 88 88 W 6 9 30 1016 2 3.21868 N/A
4:32 pm 16:32 Mostly Cloudy with Light Thunderstorms 70 21 66 19 88 88 W 6 9 30 1016 5 8.0467 N/A
4:54 pm 16:54 Mostly Cloudy with Light Thunderstorms 69 20.6 66 18.9 90 90 SSE 5 7 29.95 1014 7 11.26538 0.01 0.254
5:14 pm 17:14 Partly Cloudy with Nearby Thunderstorms 68 20 66 19 94 94 SSE 8 13 29.94 1014 9 14.48406 N/A
5:27 pm 17:27 Partly Cloudy with Light Rain 68 20 66 18.9 93 93 VRB 3 6 29.94 1014 6 9.65604 0.01 0.254
5:40 pm 17:40 Mostly Cloudy with Nearby Thunderstorms 68 20 64 18 88 88 N N/A 29.97 1015 5 8.0467 N/A
5:48 pm 17:48 Mostly Cloudy with Light Thunderstorms 68 20 64 18 88 88 N N/A 29.97 1015 5 8.0467 N/A
5:49 pm 17:49 Mostly Cloudy with Light Thunderstorms 68 20 64 18 88 88 N N/A 29.94 1014 6 9.65604 N/A
6:02 pm 18:02 Cloudy with Light Thunderstorms 68 20 64 18 88 88 S 9 15 29.94 1014 7 11.26538 N/A
6:09 pm 18:09 Cloudy with Nearby Thunderstorms 67 19.4 66 18.9 97 97 S 9 15 29.94 1014 7 11.26538 N/A
6:31 pm 18:31 Mostly Cloudy with Thunderstorms 67 19.4 65 18.3 93 93 SW 9 15 29.94 1014 8 12.87472 0.01 0.254
6:46 pm 18:46 Mostly Cloudy with Nearby Thunderstorms 66 18.9 64 17.8 93 93 S 9 15 29.91 1013 9 14.48406 0.02 0.508
6:54 pm 18:54 Mostly Cloudy with Nearby Thunderstorms 66 18.9 64 17.8 93 93 W 8 13 29.94 1014 10 16.0934 0.02 0.508
7:06 pm 19:06 Mostly Cloudy 65 18.3 63 17.2 93 93 SE 3 6 29.94 1014 10 16.0934 N/A
7:13 pm 19:13 Mostly Cloudy with Thunderstorms 66 18.9 63 17.2 90 90 ENE 5 7 29.94 1014 10 16.0934 N/A
7:26 pm 19:26 Cloudy 66 18.9 64 17.8 93 93 SE 7 11 29.94 1014 10 16.0934 N/A
7:54 pm 19:54 Mostly Cloudy 67 19.4 65 18.3 93 93 NE 8 13 29.93 1014 8 12.87472 N/A
8:49 pm 20:49 Partly Cloudy with Thunderstorms 66 19 64 18 94 94 NE 6 9 29.91 1013 8 12.87472 0.01 0.254
8:54 pm 20:54 Partly Cloudy with Thunderstorms 67 19.4 65 18.3 93 93 ENE 6 9 29.93 1014 8 12.87472 0.01 0.254
9:27 pm 21:27 Cloudy with Heavy Thunderstorms 67 19.4 65 18.3 93 93 VRB 6 9 29.94 1014 2.5 4.02335 0.18 4.572
9:35 pm 21:35 Cloudy with Light Thunderstorms 67 19.4 66 18.9 97 97 WNW 10 17 30 1016 4 6.43736 0.21 5.334
9:43 pm 21:43 Mostly Cloudy with Light Thunderstorms 66 19 66 19 100 100 WNW 9 15 30 1016 6 9.65604 N/A
9:54 pm 21:54 Mostly Cloudy with Light Thunderstorms 67 19.4 66 18.9 97 97 S 7 11 30.02 1017 6 9.65604 0.22 5.588
10:21 pm 22:21 Cloudy with Nearby Thunderstorms 67 19.4 66 18.9 97 97 SW 10 17 30 1016 5 8.0467 0.03 0.762
10:36 pm 22:36 Mostly Cloudy with Light Rain 66 18.9 64 17.8 93 93 SE 13 20 30 1016 7 11.26538 0.04 1.016
10:54 pm 22:54 Mostly Cloudy with Light Rain 67 19.4 64 17.8 91 91 ENE 9 15 30.01 1016 9 14.48406 0.04 1.016
11:03 pm 23:03 Cloudy with Nearby Thunderstorms 66 19 64 18 94 94 NE 6 9 29.97 1015 6 9.65604 N/A
11:13 pm 23:13 Mostly Cloudy with Light Thunderstorms 67 19.4 65 18.3 93 93 N 9 15 30 1016 7 11.26538 0.01 0.254
11:33 pm 23:33 Mostly Cloudy with Light Rain 67 19.4 64 17.8 91 91 ESE 10 17 29.97 1015 8 12.87472 0.05 1.27
11:54 pm 23:54 Mostly Cloudy with Light Rain 68 20 62 16.7 81 81 undefined N/A 29.94 1014 10 16.0934 0.05 1.27

Powered by AerisWeather